星链-4392 (STARLINK-4392 )

导读

STARLINK-4392是美国太空探索技术公司(SpaceX)星链星座的成员,于2022年8月12日发射。星链项目旨在构建全球卫星互联网星座,该卫星入轨后承担宽带互联网服务任务,覆盖偏远缺网区域,为全球用户提供低空、低延迟的网络接入服务,助力SpaceX完成全球卫星互联网组网布局。

基本信息
目录编号:
53489
目录名称:
STARLINK-4392
国际标识:
2022-099AA
轨道中心:
EARTH
卫星名称:
星链-4392
卫星全名:
星链-4392 (STARLINK-4392 )
卫星状态:
在轨 (已飞行1491 天)
发射日期:
2022-08-12 UTC
国别 :
美国 (US)
星等 :
--
该卫星已列入 空间交会检测服务 Space Conjunction Data Service (SCDS) ,当前飞行风险评估等级: 无高风险
轨道信息
数据来源 国际轨道数据
星历时间: 2026-09-11T16:00:04+0800
6小时前
查看轨道信息
半长轴: 6917.499km
偏心率: 0.0001283
轨道倾角: 97.282°
近地点辐角 137.074°
升交点赤经 8.679°
平近点角 230.823°
近地点: 538.474km
远地点: 540.25km
周期: 95.430分钟
每日圈数: 15.08965
详细信息
固有亮度:
5
最大亮度:
2.5
卫星平台:
Starlink v1.5
覆盖范围:
全球
运营商:
太空探索技术公司
运营商所在国:
美国
制造商(研发单位):
太空探索技术公司
制造商所在国:
美国
使用方式:
暂无
卫星简介
星链(Starlink)计划是由太空探索技术公司(SpaceX)提出的一个巨型低轨卫星互联网星座项目,计划在2019年至2024年间在太空搭建由约1.2万颗卫星组成的“星链”网络,其中1584颗将部署在地球上空550千米处的近地轨道,并从2020年开始工作。该卫星仍在工作。
2D轨道图
3D轨道图
轨道高度分析图
轨道倾角分析图
轨道综合分析图
查看轨道综合分析图
交会数据列表
事件ID 空间交会对象 最接近时刻(TCA) 交会距离 交会风险概率(CRP) 交会风险指数(CRI) 操作
CDM_260912-030205-348905-383321
2026-09-12T
03:02:37+0000
1.347 km
极远距离
9.583325E-6 低风险 0.55
CDM_260912-021405-348905-383321
2026-09-12T
02:14:53+0000
1.601 km
极远距离
5.401211E-6 低风险 0.5
CDM_260906-115803-567005-348921
2026-09-06T
11:58:01+0000
2.680 km
极远距离
1.48909E-6 低风险 0.38
与全量物体交会距离演化趋势
与全量物体交会风险概率演化趋势